Location: Newark
(42.9500°N, 17.1167°E)
Time: 13:52:48
(UTC+00:00)

ISS - Visible Passes

Search period start: 27 September 2020 00:00
Search period end: 07 October 2020 00:00
Orbit: 419 x 421 km, 51.6° (Epoch: 28 September)

Date Brightness Start Highest point End Pass type
(mag) Time Alt. Az. Time Alt. Az. Time Alt. Az.
27 Sep -1.5 17:26:02 10° NW 17:28:31 19° N 17:31:00 10° NE visible
27 Sep -1.2 19:03:17 10° NW 19:04:38 18° NNW 19:04:38 18° NNW visible
28 Sep -1.9 18:16:05 10° NW 18:18:45 21° NNE 18:19:09 21° NNE visible
29 Sep -1.7 17:28:48 10° NW 17:31:19 19° N 17:33:42 11° NE visible
29 Sep -1.1 19:05:31 10° NW 19:06:40 19° NW 19:06:40 19° NW visible
30 Sep -2.5 18:18:20 10° NW 18:21:13 31° NNE 18:21:13 31° NNE visible
01 Oct -2.2 17:31:09 10° NW 17:34:01 25° NNE 17:35:48 17° ENE visible
01 Oct -0.9 19:07:46 10° WNW 19:08:46 18° WNW 19:08:46 18° WNW visible
02 Oct -3.3 18:20:29 10° NW 18:23:24 57° NNW 18:23:24 57° NNW visible
03 Oct -3.2 17:33:16 10° NW 17:36:32 44° NNE 17:38:04 25° E visible
03 Oct -0.6 19:10:20 10° WNW 19:11:03 14° W 19:11:03 14° W visible
04 Oct -2.8 18:22:49 10° WNW 18:25:48 43° SW 18:25:48 43° SW visible
05 Oct -3.7 17:35:26 10° WNW 17:38:49 75° SW 17:40:39 25° SE visible
06 Oct -3.7 16:48:08 10° NW 16:51:31 68° NNE 16:54:51 10° ESE visible
06 Oct -1.3 18:25:48 10° W 18:27:59 16° SW 18:28:36 15° SW visible
